Starlink 32782

operational
NORAD ID: 62821 Int'l Des: 2025-018 Owner: SPXS Country: US Constellation: starlink
LEOCIRCULAR

关于 Starlink 32782

正在加载描述...

实时位置

正在加载3D地球...

即将过境

高度历史

Altitude vs Time

uPlot chart will show altitude changes over time

两行轨道根数

1 62821U 25018R 25258.14586249 .00028766 00000-0 97861-3 0 9999
2 62821 53.1607 44.8483 0001090 91.1625 268.9500 15.30232404 36304
Epoch: Sep 15, 2025 • Age: 10 hours

当前状态

高度 483.7 km
速度 7.62 km/s
星下点 -27.68°S, 43.44°E
发射日期 Jan 24, 2025
运行时间 0.6 years
类型 internet

技术详情

分类 Payload
质量 730.00 kg
干质量 700.00 kg
总质量 730.00 kg
长度 0.30 m
直径 4.10 m
跨度 29.00 m
形状 Box + pan
制造商 SPXS
平台类型 Starlink V2M
阶段状态 In Orbit
所有者/国家 SPXS/US

大型星座

Loading constellations...